Regional Weather Roundup
Issued by NWS

Home | Current Version | Previous Version | Graphics & Text | Print | Product List | Glossary On
Versions: 1 2 3 4 5 6 7 8 9 10 11 12 13 14 15 16 17 18 19 20 21 22 23 24 25 26 27 28 29 30 31 32 33 34 35 36 37 38 39 40 41 42 43 44 45 46 47 48 49 50
000
ASUS43 KBIS 241910
RWRND

NORTH DAKOTA REGIONAL WEATHER ROUNDUP
NATIONAL WEATHER SERVICE BISMARCK ND
200 PM CDT MON APR 24 2017

NOTE: "FAIR" INDICATES FEW OR NO CLOUDS BELOW 12,000 FEET WITH NO
SIGNIFICANT WEATHER AND/OR OBSTRUCTIONS TO VISIBILITY.


NDZ001>003-009>011-017-242000-
NORTHWEST NORTH DAKOTA

CITY           SKY/WX    TMP DP  RH WIND       PRES   REMARKS
WILLISTON      CLOUDY    36  28  73 NE8       29.71F
MINOT          FLURRIES  34  29  82 N15       29.69F
MINOT AFB      LGT RAIN  33  28  83 N14       29.70F
$$

NDZ018>021-031>035-040>046-242000-
SOUTHWEST NORTH DAKOTA

CITY           SKY/WX    TMP DP  RH WIND       PRES   REMARKS
BISMARCK       CLOUDY    39  33  79 N10       29.64S
DICKINSON      CLOUDY    37  33  85 N9        29.62F
GARRISON         N/A     33  29  85 NE12G20   29.67R
HETTINGER ARPT CLOUDY    44  38  79 N10       29.63R
$$

NDZ004>008-012>016-024-026-027-054-242000-
NORTHEAST NORTH DAKOTA

CITY           SKY/WX    TMP DP  RH WIND       PRES   REMARKS
GRAND FORKS    RAIN      38  36  92 NE13      29.61F FOG
GRND FRKS AFB  RAIN      34  33  99 NE12      29.62F
DEVILS LAKE    FLURRIES  32  29  88 N18       29.66R
$$

NDZ022-023-025-028>030-036>039-047>053-242000-
SOUTHEAST NORTH DAKOTA

CITY           SKY/WX    TMP DP  RH WIND       PRES   REMARKS
FARGO          CLOUDY    51  41  68 N15       29.52F
JAMESTOWN      LGT RAIN  35  35 100 N9        29.59R
$$





USA.gov is the U.S. government's official web portal to all federal, state and local government web resources and services.